TimeCEST,TemperatureF,Dew PointF,Humidity,Sea Level PressureIn,VisibilityMPH,Wind Direction,Wind SpeedMPH,Gust SpeedMPH,PrecipitationIn,Events,Conditions,WindDirDegrees,DateUTC
12:55 AM,39.2,37.4,93,30.04,0.0,SW,5.8,-,N/A,Fog,Fog,230,2013-10-09 22:55:00
1:55 AM,37.4,37.4,100,30.01,0.0,SW,4.6,-,N/A,Fog,Fog,220,2013-10-09 23:55:00
2:55 AM,37.4,37.4,100,29.98,0.0,SSW,5.8,-,N/A,Fog,Fog,210,2013-10-10 00:55:00
3:55 AM,37.4,37.4,100,29.95,0.0,SSW,6.9,-,N/A,Fog,Fog,210,2013-10-10 01:55:00
4:55 AM,37.4,37.4,100,29.92,0.0,SW,6.9,-,N/A,Fog,Fog,220,2013-10-10 02:55:00
5:00 AM,37,37,100,,0,SW,6.9,,,Fog,Heavy Fog,220,2013-10-10 03:00:00
5:55 AM,37.4,37.4,100,29.92,0.0,SW,8.1,-,N/A,Fog,Fog,220,2013-10-10 03:55:00
6:55 AM,37.4,37.4,100,29.89,0.0,SW,9.2,-,N/A,Fog,Fog,230,2013-10-10 04:55:00
7:55 AM,37.4,37.4,100,29.89,0.0,WSW,13.8,-,N/A,Fog-Rain,Light Rain,240,2013-10-10 05:55:00
8:00 AM,37,37,100,,0,WSW,13.8,,,Rain,Light Rain,240,2013-10-10 06:00:00
8:55 AM,37.4,37.4,100,29.86,0.0,WSW,11.5,-,N/A,Fog-Rain,Rain,240,2013-10-10 06:55:00
9:55 AM,37.4,37.4,100,29.83,0.0,WSW,13.8,-,N/A,Fog-Rain,Rain,240,2013-10-10 07:55:00
10:55 AM,37.4,37.4,100,29.80,0.0,South,12.7,-,N/A,Fog-Rain,Rain,180,2013-10-10 08:55:00
11:00 AM,37,37,100,,0,South,12.7,,,Rain,Rain,180,2013-10-10 09:00:00
11:55 AM,37.4,37.4,100,29.80,0.0,SSW,16.1,-,N/A,Fog-Rain,Light Rain,200,2013-10-10 09:55:00
12:55 PM,37.4,37.4,100,29.77,0.0,SW,18.4,-,N/A,Fog-Rain,Light Rain,220,2013-10-10 10:55:00
1:55 PM,37.4,37.4,100,29.74,0.0,SW,23.0,-,N/A,Fog-Rain,Rain,230,2013-10-10 11:55:00
2:00 PM,37,37,100,,0,SW,23.0,,,Rain,Rain,230,2013-10-10 12:00:00
2:55 PM,37.4,37.4,100,29.71,0.0,SW,24.2,-,N/A,Fog-Rain,Rain,230,2013-10-10 12:55:00
3:55 PM,37.4,37.4,100,29.68,0.0,SW,26.5,-,N/A,Fog,Fog,230,2013-10-10 13:55:00
4:55 PM,35.6,35.6,100,29.65,0.0,WSW,36.8,-,N/A,Fog-Rain,Light Rain,240,2013-10-10 14:55:00
5:00 PM,36,36,100,,0,WSW,36.8,,,Rain,Light Rain,240,2013-10-10 15:00:00
5:55 PM,35.6,35.6,100,29.62,0.0,WSW,38.0,-,N/A,Fog-Rain,Light Rain,240,2013-10-10 15:55:00
6:55 PM,35.6,35.6,100,29.62,0.0,WSW,35.7,-,N/A,Fog-Rain,Light Rain,240,2013-10-10 16:55:00
7:55 PM,35.6,35.6,100,29.59,0.0,SW,38.0,-,N/A,Fog,Fog,230,2013-10-10 17:55:00
8:00 PM,36,36,98,,0,SW,38.0,,,Fog,Heavy Fog,230,2013-10-10 18:00:00
8:55 PM,35.6,35.6,100,29.59,0.0,SW,29.9,-,N/A,Fog,Fog,230,2013-10-10 18:55:00
9:10 PM,33.8,33.8,100,29.59,0.0,SW,32.2,-,N/A,Snow-Thunderstorm,Unknown,230,2013-10-10 19:10:00
9:55 PM,33.8,33.8,100,29.59,0.0,SSW,25.3,-,N/A,Fog-Rain,Rain,210,2013-10-10 19:55:00
10:55 PM,33.8,33.8,100,29.59,0.0,SSW,23.0,-,N/A,Fog-Rain,Light Rain,210,2013-10-10 20:55:00
11:00 PM,35,35,97,,0,SSW,23.0,,,Rain,Light Rain,210,2013-10-10 21:00:00
11:55 PM,35.6,35.6,100,29.59,0.0,South,25.3,-,N/A,Fog-Rain,Light Rain,180,2013-10-10 21:55:00